Regional Weather Roundup
Issued by NWS

Home | Current Version | Previous Version | Graphics & Text | Print | Product List | Glossary Off
Versions: 1 2 3 4 5 6 7 8 9 10 11 12 13 14 15 16 17 18 19 20 21 22 23 24 25 26 27 28 29 30 31 32 33 34 35 36 37 38 39 40 41 42 43 44 45 46 47 48 49 50

000
ASUS43 KTOP 201708
RWRKS

WEATHER ROUNDUP FOR KANSAS
NATIONAL WEATHER SERVICE GOODLAND KS
1100 AM CST THU NOV 20 2014

NOTE:  "FAIR" INDICATES FEW OR NO CLOUDS BELOW 12,000 FEET WITH NO
SIGNIFICANT WEATHER AND/OR OBSTRUCTIONS TO VISIBILITY.

KSZ001>006-013>018-027>032-041>047-201800-
NORTHWEST KANSAS

CITY           SKY/WX    TMP DP  RH WIND       PRES   REMARKS
GOODLAND       SUNNY     44  22  41 N6        30.05S
HAYS           SUNNY     41  21  45 S14       30.12F
HILL CITY      SUNNY     37  25  61 CALM      30.11S
RUSSELL        SUNNY     39  21  48 S14       30.13F WCI  31
$$

KSZ061>065-074>080-084>089-201800-
SOUTHWEST KANSAS

CITY           SKY/WX    TMP DP  RH WIND       PRES   REMARKS
DODGE CITY     SUNNY     43  26  51 S13       30.10S
ELKHART          N/A     42  29  60 N1          N/A
GARDEN CITY    MOSUNNY   43  28  55 MISG      30.07S
GREAT BEND     SUNNY     39  21  48 S12       30.15F WCI  32
LIBERAL        SUNNY     43  28  56 SE5       30.08S
PRATT          MOSUNNY   37  27  65 SE6       30.14F
$$

KSZ066>073-081>083-090>101-201800-
SOUTHEAST KANSAS

CITY           SKY/WX    TMP DP  RH WIND       PRES   REMARKS
CHANUTE        SUNNY     40  22  48 E9        30.22F
COFFEYVILLE    SUNNY     44  24  45 E9        30.20F
HUTCHINSON     SUNNY     41  21  44 SE13      30.17S
MEDICINE LODGE   N/A     38  24  57 SE6       30.15F
NEWTON         SUNNY     37  21  52 SE9       30.19S
PARSONS        SUNNY     43  23  45 E8        30.21F
WICHITA INTL   MOSUNNY   42  21  43 SE9       30.17F
WICHITA JABRA  SUNNY     41  22  46 SE9       30.17F
WICHITA MCCONL SUNNY     41  21  44 E7        30.17F
WINFIELD       MOSUNNY   41  21  44 E8        30.18S
$$

KSZ007>012-019>026-033>040-048>060-102>105-201800-
NORTHEAST KANSAS

CITY           SKY/WX    TMP DP  RH WIND       PRES   REMARKS
CONCORDIA      SUNNY     33  18  53 SE10      30.20S WCI  25
EMPORIA        SUNNY     36  19  50 E9        30.22F
LAWRENCE       SUNNY     33  17  51 NE8       30.27F
MANHATTAN      SUNNY     34  18  52 E9        30.24S
MARYSVILLE     SUNNY     32  19  59 E3        30.23F
OLATHE IND     SUNNY     34  17  50 NE8       30.26S HAZE
OLATHE EXE     SUNNY     34  17  50 NE7       30.25S
SALINA         SUNNY     38  18  44 E8        30.21S
TOPEKA BILLARD SUNNY     35  17  47 NE8       30.26F
TOPEKA FORBES  SUNNY     35  17  47 NE7       30.24F
$$


USA.gov is the U.S. government's official web portal to all federal, state and local government web resources and services.